AL7BX-WX Weather Reports


time (UTC)temp
C
wind
direction
speed
KPH
gust
KPH
rain 1hr
cm
rain 24hr
cm
rain mn
cm
humidity
%
barometer
mb
20260904075403 20 162 12.9 27.4 0.00 0.00 0.00 36
20260904074503 20 163 12.9 25.7 0.00 0.00 0.00 33
20260904073603 20 161 11.3 29.0 0.00 0.00 0.00 31
20260904072703 20 162 11.3 25.7 0.00 0.00 0.00 30
20260904071803 20 167 11.3 24.1 0.00 0.00 0.00 29
20260904070903 20 166 12.9 29.0 0.00 0.00 0.00 28
20260904070003 20 168 14.5 25.7 0.00 0.00 0.00 27
20260904065403 20 165 14.5 27.4 0.00 0.00 0.00 26
20260904064503 20 174 12.9 35.4 0.00 0.00 0.00 25
20260904063603 20 170 14.5 25.7 0.00 0.00 0.00 24
20260904062703 20 172 12.9 32.2 0.00 0.00 0.00 23
20260904061803 20 169 12.9 32.2 0.00 0.00 0.00 22
20260904060903 21 169 11.3 25.7 0.00 0.00 0.00 22
20260904060007 21 167 12.9 33.8 0.00 0.00 0.00 21
20260904055614 21 164 11.3 33.8 0.00 0.00 0.00 21
20260904054503 21 160 9.7 20.9 0.00 0.00 0.00 20
20260904053603 21 157 9.7 20.9 0.00 0.00 0.00 19
20260904052703 21 159 11.3 25.7 0.00 0.00 0.00 19
20260904051803 21 155 9.7 24.1 0.00 0.00 0.00 18
20260904050903 21 144 9.7 20.9 0.00 0.00 0.00 18
20260904050214 21 156 11.3 30.6 0.00 0.00 0.00 18
20260904045613 21 154 11.3 24.1 0.00 0.00 0.00 18
20260904044503 21 146 8.0 22.5 0.00 0.00 0.00 17
20260904043814 21 148 11.3 24.1 0.00 0.00 0.00 17
20260904042913 21 138 9.7 22.5 0.00 0.00 0.00 16
20260904042013 21 139 8.0 22.5 0.00 0.00 0.00 17
20260904040903 21 141 9.7 19.3 0.00 0.00 0.00 16
20260904040003 21 145 8.0 17.7 0.00 0.00 0.00 16
20260904035403 21 140 8.0 22.5 0.00 0.00 0.00 17
20260904034503 21 138 6.4 17.7 0.00 0.00 0.00 17
20260904033603 21 133 4.8 16.1 0.00 0.00 0.00 18
20260904032913 21 133 4.8 9.7 0.00 0.00 0.00 18
20260904032014 21 126 3.2 9.7 0.00 0.00 0.00 19
20260904030903 21 140 3.2 9.7 0.00 0.00 0.00 18
20260904030003 22 137 3.2 8.0 0.00 0.00 0.00 18
20260904025403 22 116 4.8 9.7 0.00 0.00 0.00 18
20260904024503 22 122 4.8 16.1 0.00 0.00 0.00 17
20260904023813 21 134 4.8 16.1 0.00 0.00 0.00 17
20260904022703 21 177 1.6 8.0 0.00 0.00 0.00 18
20260904021803 21 169 0.0 3.2 0.00 0.00 0.00 18
20260904020903 22 176 3.2 11.3 0.00 0.00 0.00 17
20260904020003 22 187 6.4 17.7 0.00 0.00 0.00 16
20260904015403 22 184 6.4 20.9 0.00 0.00 0.00 16
20260904014504 23 197 8.0 19.3 0.00 0.00 0.00 16
20260904013603 23 197 9.7 25.7 0.00 0.00 0.00 16
20260904012703 24 193 12.9 29.0 0.00 0.00 0.00 16
20260904011803 24 188 9.7 29.0 0.00 0.00 0.00 16
20260904010903 25 181 12.9 32.2 0.00 0.00 0.00 16
20260904010214 25 190 9.7 24.1 0.00 0.00 0.00 16
20260904005403 25 183 11.3 27.4 0.00 0.00 0.00 16
20260904004503 26 180 12.9 29.0 0.00 0.00 0.00 17
20260904003603 26 158 11.3 33.8 0.00 0.00 0.00 16
20260904002703 26 166 11.3 20.9 0.00 0.00 0.00 16
20260904001803 26 168 12.9 30.6 0.00 0.00 0.00 16
20260904001112 26 167 14.5 33.8 0.00 0.00 0.00 17
20260904000003 26 177 16.1 32.2 0.00 0.00 0.00 16
20260903235403 26 185 17.7 33.8 0.00 0.00 0.00 16
20260903234503 26 196 16.1 37.0 0.00 0.00 0.00 17
20260903233814 26 194 14.5 30.6 0.00 0.00 0.00 16
20260903232703 26 183 17.7 40.2 0.00 0.00 0.00 16
20260903231803 26 197 16.1 32.2 0.00 0.00 0.00 17
20260903230903 26 202 17.7 37.0 0.00 0.00 0.00 17
20260903230003 27 190 16.1 38.6 0.00 0.00 0.00 17
20260903225403 27 186 16.1 35.4 0.00 0.00 0.00 17
20260903224503 27 164 14.5 33.8 0.00 0.00 0.00 17
20260903223603 27 179 17.7 35.4 0.00 0.00 0.00 17
20260903222704 27 193 19.3 35.4 0.00 0.00 0.00 17
20260903222012 27 185 17.7 40.2 0.00 0.00 0.00 18
20260903221114 27 178 16.1 37.0 0.00 0.00 0.00 18
20260903220003 27 176 16.1 33.8 0.00 0.00 0.00 17
20260903215403 27 180 14.5 30.6 0.00 0.00 0.00 19
20260903214503 27 185 16.1 32.2 0.00 0.00 0.00 19
20260903213603 27 185 17.7 35.4 0.00 0.00 0.00 19
20260903212703 27 196 17.7 33.8 0.00 0.00 0.00 19
20260903211803 26 199 17.7 40.2 0.00 0.00 0.00 21
20260903210903 26 199 19.3 33.8 0.00 0.00 0.00 20
20260903210003 26 207 17.7 38.6 0.00 0.00 0.00 20
20260903205403 26 192 16.1 38.6 0.00 0.00 0.00 22
20260903204503 27 193 17.7 33.8 0.00 0.00 0.00 22
20260903203603 27 183 16.1 27.4 0.00 0.00 0.00 20
20260903202703 27 177 16.1 29.0 0.00 0.00 0.00 20
20260903201803 26 167 16.1 38.6 0.00 0.00 0.00 22
20260903200903 26 168 17.7 45.1 0.00 0.00 0.00 22
20260903200003 26 155 16.1 30.6 0.00 0.00 0.00 21
20260903195614 26 160 14.5 30.6 0.00 0.00 0.00 21
20260903194503 26 145 16.1 30.6 0.00 0.00 0.00 22
20260903193812 26 152 17.7 35.4 0.00 0.00 0.00 22
20260903192703 26 167 17.7 38.6 0.00 0.00 0.00 22
20260903191803 25 181 17.7 46.7 0.00 0.00 0.00 24
20260903190903 25 155 17.7 40.2 0.00 0.00 0.00 23
20260903190003 25 159 19.3 37.0 0.00 0.00 0.00 23
20260903185403 25 155 17.7 37.0 0.00 0.00 0.00 22
20260903184503 25 171 17.7 37.0 0.00 0.00 0.00 24
20260903183603 25 171 17.7 35.4 0.00 0.00 0.00 24
20260903182703 24 173 19.3 35.4 0.00 0.00 0.00 23
20260903181803 24 182 19.3 38.6 0.00 0.00 0.00 24
20260903180903 24 177 16.1 33.8 0.00 0.00 0.00 26
20260903180003 24 177 17.7 37.0 0.00 0.00 0.00 24
20260903175403 23 178 19.3 37.0 0.00 0.00 0.00 23
20260903174503 23 178 17.7 37.0 0.00 0.00 0.00 24
20260903173603 23 176 16.1 37.0 0.00 0.00 0.00 25
20260903172703 23 195 16.1 32.2 0.00 0.00 0.00 26
20260903171803 23 180 14.5 33.8 0.00 0.00 0.00 25
20260903171114 23 182 16.1 33.8 0.00 0.00 0.00 25
20260903170213 23 177 17.7 40.2 0.00 0.00 0.00 24
20260903165403 23 172 14.5 29.0 0.00 0.00 0.00 24
20260903164503 23 170 14.5 30.6 0.00 0.00 0.00 27
20260903163813 22 165 14.5 30.6 0.00 0.00 0.00 26
20260903162704 22 171 16.1 32.2 0.00 0.00 0.00 29
20260903161803 22 170 16.1 32.2 0.00 0.00 0.00 28
20260903160903 22 178 12.9 29.0 0.00 0.00 0.00 29
20260903160003 21 198 11.3 22.5 0.00 0.00 0.00 30
20260903155403 21 188 12.9 33.8 0.00 0.00 0.00 29
20260903154503 21 185 11.3 25.7 0.00 0.00 0.00 28
20260903153603 20 185 11.3 24.1 0.00 0.00 0.00 28
20260903152703 20 182 9.7 25.7 0.00 0.00 0.00 27
20260903151803 20 190 8.0 17.7 0.00 0.00 0.00 28
20260903150903 19 205 6.4 14.5 0.00 0.00 0.00 27
20260903150003 18 203 4.8 11.3 0.00 0.00 0.00 27
20260903145403 18 197 6.4 16.1 0.00 0.00 0.00 28
20260903144713 18 184 4.8 9.7 0.00 0.00 0.00 26
20260903143603 17 169 3.2 8.0 0.00 0.00 0.00 28
20260903142703 16 195 3.2 11.3 0.00 0.00 0.00 28
20260903141803 14 248 1.6 6.4 0.00 0.00 0.00 32
20260903141113 13 254 3.2 6.4 0.00 0.00 0.00 33
20260903140003 13 198 3.2 8.0 0.00 0.00 0.00 36
20260903135403 13 151 4.8 9.7 0.00 0.00 0.00 34
20260903134503 11 191 1.6 9.7 0.00 0.00 0.00 34
20260903133603 10 220 0.0 3.2 0.00 0.00 0.00 38
20260903132703 10 220 0.0 4.8 0.00 0.00 0.00 40
20260903132013 10 220 1.6 4.8 0.00 0.00 0.00 40
20260903130904 9 220 0.0 3.2 0.00 0.00 0.00 41
20260903130003 9 220 1.6 4.8 0.00 0.00 0.00 42
20260903125403 9 220 1.6 4.8 0.00 0.00 0.00 41
20260903124503 9 211 1.6 6.4 0.00 0.00 0.00 42
20260903123814 9 0 0.0 0.0 0.00 0.00 0.00 43
20260903122703 8 163 0.0 4.8 0.00 0.00 0.00 43
20260903121803 8 0 0.0 0.0 0.00 0.00 0.00 44
20260903120903 8 0 0.0 0.0 0.00 0.00 0.00 42
20260903120003 9 163 0.0 1.6 0.00 0.00 0.00 41
20260903115403 10 163 0.0 1.6 0.00 0.00 0.00 40
20260903114503 10 163 0.0 3.2 0.00 0.00 0.00 39
20260903113814 11 163 0.0 1.6 0.00 0.00 0.00 37
20260903112913 11 0 0.0 0.0 0.00 0.00 0.00 36
20260903111803 13 163 1.6 4.8 0.00 0.00 0.00 32
20260903110903 14 163 1.6 4.8 0.00 0.00 0.00 31
20260903110003 15 176 3.2 9.7 0.00 0.00 0.00 28
20260903105403 15 177 3.2 14.5 0.00 0.00 0.00 28
20260903104714 15 174 3.2 14.5 0.00 0.00 0.00 27
20260903103813 15 181 3.2 8.0 0.00 0.00 0.00 27
20260903102703 15 180 3.2 11.3 0.00 0.00 0.00 27
20260903101803 15 162 3.2 9.7 0.00 0.00 0.00 27
20260903100903 15 156 4.8 11.3 0.00 0.00 0.00 27
20260903100212 15 148 4.8 11.3 0.00 0.00 0.00 27
20260903095403 15 139 4.8 11.3 0.00 0.00 0.00 28
20260903094503 12 136 3.2 8.0 0.00 0.00 0.00 32
20260903093603 11 330 0.0 3.2 0.00 0.00 0.00 36
20260903092703 11 0 0.0 0.0 0.00 0.00 0.00 39
20260903091803 11 330 1.6 6.4 0.00 0.00 0.00 40
20260903090903 11 330 1.6 6.4 0.00 0.00 0.00 42
20260903090003 11 330 1.6 4.8 0.00 0.00 0.00 42
20260903085614 12 330 1.6 4.8 0.00 0.00 0.00 41
20260903084503 12 330 1.6 4.8 0.00 0.00 0.00 37
20260903083603 11 330 1.6 4.8 0.00 0.00 0.00 37
20260903082703 11 330 1.6 3.2 0.00 0.00 0.00 38
20260903081803 11 330 0.0 3.2 0.00 0.00 0.00 37
20260903081113 12 0 0.0 0.0 0.00 0.00 0.00 36
20260903080004 12 330 1.6 3.2 0.00 0.00 0.00 35